This is the latest recevied weather packets stored in our database for station/object IW7DVM-13. If no packets are shown the sender has not sent any weather packets the latest 10 day(s).
| Time | Temp. | Humidity | Pressure | Rain* | Wind** | Luminosity | Snow |
|---|---|---|---|---|---|---|---|
| 1787942103 | 31.11° C | 61% | 1009.3 hPa | 0 mm | - | - | - |
| 1787941803 | 31.11° C | 61% | 1009.4 hPa | 0 mm | - | - | - |
| 1787941503 | 31.11° C | 61% | 1009.3 hPa | 0 mm | - | - | - |
| 1787941203 | 31.11° C | 61% | 1009.3 hPa | 0 mm | - | - | - |
| 1787940903 | 31.67° C | 61% | 1009.2 hPa | 0 mm | - | - | - |
| 1787940603 | 31.67° C | 61% | 1009.1 hPa | 0 mm | - | - | - |
| 1787940303 | 31.67° C | 61% | 1009.2 hPa | 0 mm | - | - | - |
| 1787940003 | 31.67° C | 61% | 1009.2 hPa | 0 mm | - | - | - |
| 1787939703 | 31.67° C | 61% | 1009.2 hPa | 0 mm | - | - | - |
| 1787939403 | 31.67° C | 61% | 1009.3 hPa | 0 mm | - | - | - |
| 1787939103 | 32.22° C | 62% | 1009.1 hPa | 0 mm | - | - | - |
| 1787938803 | 32.22° C | 61% | 1009.1 hPa | 0 mm | - | - | - |
| 1787938503 | 32.22° C | 59% | 1008.9 hPa | 0 mm | - | - | - |
| 1787938203 | 32.22° C | 56% | 1008.9 hPa | 0 mm | - | - | - |
| 1787937903 | 32.22° C | 57% | 1009 hPa | 0 mm | - | - | - |
| 1787937603 | 32.22° C | 57% | 1009.1 hPa | 0 mm | - | - | - |
| 1787937303 | 32.22° C | 58% | 1009 hPa | 0 mm | - | - | - |
| 1787937003 | 31.67° C | 59% | 1009.1 hPa | 0 mm | - | - | - |
| 1787936703 | 31.67° C | 61% | 1009 hPa | 0 mm | - | - | - |
| 1787936403 | 31.67° C | 63% | 1009.2 hPa | 0 mm | - | - | - |
| 1787936103 | 31.67° C | 64% | 1009 hPa | 0 mm | - | - | - |
| 1787935803 | 31.67° C | 64% | 1009 hPa | 0 mm | - | - | - |
| 1787935503 | 31.67° C | 64% | 1009.1 hPa | 0 mm | - | - | - |
| 1787935203 | 31.67° C | 64% | 1009.1 hPa | 0 mm | - | - | - |
| 1787934903 | 31.67° C | 64% | 1009.1 hPa | 0 mm | - | - | - |
* Rain latest hour (hover to see other rain measurements)
** Current wind speed in m/s (hover to see current wind gust speed)